Home > Time Zones > World Clock > Weather > U.S.A. > Waco > Past weeks

Flag for U.S.A. Weather past 2 weeks in Waco, Texas, U.S.A.

Now
49 °F

Fog.


Feels Like: 49 °F
Forecast: 46 / 61 °F
Wind: No wind

Location: Waco Regional Airport

Current Time: Dec 18, 2014 at 11:41:38 AM

Latest Report: Dec 18, 2014 at 10:51 AM


Visibility: 1 mi

Pressure: 30.16 "Hg

Humidity: 97%

Dew point: 48 °F

Location of WacoLocation

Historic Weather in Waco — Graph

°F

Waco temperature yesterday

Maximum temperature yesterday: 49 °F (at 1:51 PM)
Minimum temperature yesterday: 44 °F (at 12:51 AM)
Average temperature yesterday: 47 °F

Past Weeks' High & Low Weather Summary

 TemperatureHumidityPressure
High74 °F (Dec 5, 1:51 PM)100% (Dec 4, 7:01 PM)30.41 "Hg (Dec 4, 7:01 PM)
Low35 °F (Dec 9, 3:51 AM)28% (Dec 15, 3:51 PM)29.80 "Hg (Dec 14, 5:51 PM)
Average55 °F81%30.18 "Hg
* Reported Dec 3 9:51 AM — Dec 18 9:51 AM, Waco, Weather by CustomWeather, © 2014

Note: Actual official high and low records may vary slightly from our data, if they occured in-between our weather recording intervals... More about our weather records

Advertising

Waco weather history for previous 24 hours

 ConditionsComfort  
Time TempWeatherWind HumidityBarometerVisibility
9:51 AM
Dec 18
48 °FFog.3 mph96%30.15 "Hg1 mi
8:58 AM47 °FFog.No wind97%30.14 "Hg1 mi
7:51 AM47 °FFog.3 mph97%30.13 "Hg1 mi
6:51 AM46 °FFog.No wind96%30.12 "Hg2 mi
5:51 AM46 °FFog.5 mph96%30.10 "Hg3 mi
4:51 AM46 °FFog.5 mph96%30.09 "Hg2 mi
3:51 AM46 °FFog.5 mph96%30.11 "Hg3 mi
2:51 AM46 °FFog.5 mph96%30.11 "Hg3 mi
1:51 AM46 °FFog.7 mph93%30.12 "Hg4 mi
12:56 AM46 °FFog.6 mph96%30.14 "Hg2 mi
11:59 PM
Dec 17
46 °FFog.5 mph93%30.16 "Hg6 mi
10:51 PM46 °FOvercast.7 mph93%30.16 "Hg9 mi
9:51 PM46 °FOvercast.7 mph93%30.14 "Hg9 mi
8:51 PM47 °FOvercast.7 mph93%30.13 "Hg10 mi
7:51 PM48 °FOvercast.6 mph89%30.12 "Hg10 mi
6:51 PM48 °FOvercast.5 mph89%30.11 "Hg10 mi
5:51 PM47 °FLight rain. Overcast.6 mph86%30.09 "Hg10 mi
4:51 PM48 °FOvercast.3 mph83%30.09 "Hg10 mi
3:51 PM48 °FOvercast.No wind86%30.08 "Hg10 mi
2:51 PM49 °FOvercast.13 mph66%30.04 "Hg10 mi
1:51 PM49 °FOvercast.14 mph66%30.10 "Hg10 mi
12:51 PM48 °FMostly cloudy.9 mph68%30.14 "Hg10 mi
11:51 AM47 °FOvercast.10 mph66%30.21 "Hg10 mi
Weather by CustomWeather, © 2014

See weather overviewHow to use our weather pages